User: anonymous   Login
Location: Unspecified
(0.0000°N, 0.0000°E)
Time: 17:14:08
(UTC+01:00)
Language:

CZ-4 R/B - Orbit

View from above orbital plane
View from above orbital plane
View from above satellite
View from above satellite

Ground track
Ground track

The orbit data is extracted from the following two-line orbital elements,

1 28059U 03049C   14328.22239149  .00000293  00000-0  83289-4 0  2205
2 28059 098.6806 172.4654 0049957 215.5276 264.3715 14.52214141587816
Epoch (UTC): 24 November 2014 05:20:14
Eccentricity: 0.0049957
inclination: 98.6806°
perigee height: 683 km
apogee height: 754 km
right ascension of ascending node: 172.4654°
argument of perigee: 215.5276°
revolutions per day: 14.52214141
mean anomaly at epoch: 264.3715°
orbit number at epoch: 58781

The dashed part of the orbit path shows where the satellite is in the earth's shadow,  

DLR